DW5595 Weather Reports


Display with metric or nautical units.
time (UTC)temp
F
wind
direction
speed
MPH
gust
MPH
rain 1hr
in
rain 24hr
in
rain mn
in
humidity
%
barometer
mb
20260905061512 73 121 0.0 0.0 0.00 0.00 0.00 95 1014.8
20260905060012 73 121 0.0 0.0 0.00 0.00 0.00 95 1015.1
20260905054515 73 121 0.0 0.0 0.00 0.00 0.00 94 1015.3
20260905053012 74 121 0.0 0.0 0.00 0.00 0.00 95 1015.5
20260905051523 74 34 0.0 0.0 0.00 0.00 0.00 94 1015.7
20260905050013 74 34 0.0 0.0 0.00 0.00 0.00 94 1015.6
20260905044514 74 34 0.0 0.0 0.00 0.00 0.00 94 1015.5
20260905043014 74 84 0.0 0.0 0.00 0.00 0.00 94 1015.4
20260905041516 75 38 0.0 0.0 0.00 0.00 0.00 93 1015.3
20260905040014 75 40 0.0 0.0 0.00 0.00 0.00 94 1015.2
20260905034518 75 40 0.0 0.0 0.00 0.00 0.00 93 1015.2
20260905033020 75 25 0.0 0.0 0.00 0.00 0.00 93 1014.9
20260905031518 76 145 0.0 0.0 0.00 0.00 0.00 93 1014.8
20260905030024 76 145 0.0 0.0 0.00 0.00 0.00 92 1014.9
20260905024525 76 145 0.0 0.0 0.00 0.00 0.00 92 1015.1
20260905023019 76 145 1.0 2.0 0.00 0.00 0.00 92 1015.2
20260905021514 77 96 0.0 0.0 0.00 0.00 0.00 91 1015.4
20260905020017 77 96 0.0 0.0 0.00 0.00 0.00 91 1015.3
20260905014516 78 96 0.0 0.0 0.00 0.00 0.00 90 1015.3
20260905013017 78 96 0.0 0.0 0.00 0.00 0.00 89 1015.4
20260905011517 79 96 0.0 2.0 0.00 0.00 0.00 89 1015.4
20260905010016 79 96 0.0 0.0 0.00 0.00 0.00 87 1015.6
20260905004516 80 96 0.0 1.0 0.00 0.00 0.00 87 1015.2
20260905003028 81 360 0.0 3.0 0.00 0.00 0.00 85 1015.1
20260905001521 82 172 0.0 0.0 0.00 0.00 0.00 81 1015.1
20260905000032 83 172 0.0 0.0 0.00 0.00 0.00 80 1015.1
20260904234524 85 172 0.0 0.0 0.00 0.00 0.00 75 1015.0
20260904233025 86 172 0.0 0.0 0.00 0.00 0.00 72 1014.7
20260904231526 87 172 0.0 0.0 0.00 0.00 0.00 68 1014.5
20260904230047 88 172 0.0 0.0 0.00 0.00 0.00 64 1014.4
20260904224524 90 150 0.0 2.0 0.00 0.00 0.00 61 1014.4
20260904223023 91 160 0.0 0.0 0.00 0.00 0.00 58 1014.6
20260904221521 92 147 1.0 2.0 0.00 0.00 0.00 56 1014.5
20260904220029 92 170 0.0 5.0 0.00 0.00 0.00 53 1014.7
20260904214514 92 157 1.0 4.0 0.00 0.00 0.00 57 1014.6
20260904213023 93 152 1.0 3.0 0.00 0.00 0.00 55 1014.8
20260904211510 93 188 1.0 7.0 0.00 0.00 0.00 56 1014.6
20260904210033 93 169 2.0 4.0 0.00 0.00 0.00 53 1014.6
20260904204525 93 138 1.0 4.0 0.00 0.00 0.00 53 1014.8
20260904203023 92 168 2.0 4.0 0.00 0.00 0.00 53 1014.8
20260904201516 93 196 0.0 2.0 0.00 0.00 0.00 54 1014.8
20260904200038 93 182 2.0 4.0 0.00 0.00 0.00 52 1015.1
20260904194511 94 131 2.0 7.0 0.00 0.00 0.00 51 1015.2
20260904193027 94 159 1.0 7.0 0.00 0.00 0.00 49 1015.5
20260904191507 94 202 0.0 7.0 0.00 0.00 0.00 53 1015.9
20260904190029 94 146 3.0 6.0 0.00 0.00 0.00 58 1016.1
20260904184542 94 352 0.0 4.0 0.00 0.00 0.00 53 1016.3
20260904183019 93 125 0.0 3.0 0.00 0.00 0.00 57 1016.4
20260904181525 93 13 1.0 5.0 0.00 0.00 0.00 56 1016.5
20260904180019 93 117 0.0 5.0 0.00 0.00 0.00 55 1016.7
20260904174557 93 42 0.0 4.0 0.00 0.00 0.00 55 1016.8
20260904173032 93 360 2.0 5.0 0.00 0.00 0.00 58 1017.0
20260904171530 93 32 0.0 3.0 0.00 0.00 0.00 58 1017.2
20260904170043 92 309 0.0 2.0 0.00 0.00 0.00 56 1017.3
20260904164524 92 13 2.0 3.0 0.00 0.00 0.00 60 1017.4
20260904163018 91 21 1.0 3.0 0.00 0.00 0.00 59 1017.6
20260904161519 91 147 3.0 6.0 0.00 0.00 0.00 64 1017.7
20260904160032 89 28 0.0 2.0 0.00 0.00 0.00 64 1017.9
20260904154531 89 10 1.0 3.0 0.00 0.00 0.00 70 1017.9
20260904153033 89 15 1.0 3.0 0.00 0.00 0.00 71 1018.0
20260904151530 87 23 0.0 2.0 0.00 0.00 0.00 72 1018.0
20260904150032 85 146 0.0 2.0 0.00 0.00 0.00 76 1018.1
20260904144517 83 352 1.0 2.0 0.00 0.00 0.00 79 1018.0
20260904143017 82 24 0.0 3.0 0.00 0.00 0.00 82 1018.1
20260904141515 80 352 0.0 0.0 0.00 0.00 0.00 85 1018.0
20260904140030 79 15 0.0 2.0 0.00 0.00 0.00 88 1018.0
20260904134531 77 17 0.0 0.0 0.00 0.00 0.00 90 1017.9
20260904133033 76 17 0.0 1.0 0.00 0.00 0.00 93 1017.8
20260904131531 74 352 0.0 0.0 0.00 0.00 0.00 94 1017.7
20260904130023 73 352 0.0 0.0 0.00 0.00 0.00 96 1017.9
20260904124537 72 312 0.0 0.0 0.00 0.00 0.00 97 1017.7
20260904123014 71 312 0.0 1.0 0.00 0.00 0.00 97 1018.0
20260904121533 70 312 0.0 0.0 0.00 0.00 0.00 97 1018.0
20260904120012 70 143 0.0 0.0 0.00 0.00 0.00 96 1018.0
20260904114535 69 143 0.0 0.0 0.00 0.00 0.00 96 1017.8
20260904113032 69 143 0.0 0.0 0.00 0.00 0.00 96 1017.8
20260904111526 69 143 0.0 0.0 0.00 0.00 0.00 96 1017.6
20260904110024 69 143 0.0 0.0 0.00 0.00 0.00 96 1017.5
20260904104532 69 143 0.0 1.0 0.00 0.00 0.00 96 1017.4
20260904103012 69 92 0.0 1.0 0.00 0.00 0.00 96 1017.1
20260904101512 69 56 0.0 0.0 0.00 0.00 0.00 96 1017.2
20260904100030 69 57 0.0 0.0 0.00 0.00 0.00 96 1016.9
20260904094533 70 22 1.0 2.0 0.00 0.00 0.00 95 1016.8
20260904093051 70 171 0.0 0.0 0.00 0.00 0.00 95 1016.7
20260904091523 70 171 0.0 0.0 0.00 0.00 0.00 95 1016.7
20260904090018 70 171 0.0 0.0 0.00 0.00 0.00 95 1016.7
20260904084516 70 171 0.0 0.0 0.00 0.00 0.00 95 1016.8
20260904083012 71 171 0.0 0.0 0.00 0.00 0.00 95 1016.7
20260904081532 71 171 0.0 0.0 0.00 0.00 0.00 95 1016.7
20260904080031 71 171 0.0 0.0 0.00 0.00 0.00 95 1016.7
20260904074527 71 171 0.0 0.0 0.00 0.00 0.00 95 1016.7
20260904073047 71 171 0.0 0.0 0.00 0.00 0.00 95 1016.7
20260904071524 72 171 0.0 0.0 0.00 0.00 0.00 95 1016.8
20260904070017 72 171 0.0 0.0 0.00 0.00 0.00 95 1016.8
20260904064533 72 171 0.0 0.0 0.00 0.00 0.00 95 1017.0
20260904063039 72 171 0.0 0.0 0.00 0.00 0.00 95 1017.2